www.pogodaiklimat.ru

Погода и климат >> Архив погоды >> Россия >> Карачаево-Черкессия >> Зеленчукская


ПОГОДА в Зеленчукской

  • Прогноз погоды в Зеленчукской
  • Монитор погоды в Зеленчукской

АРХИВ ПОГОДЫ в Зеленчукской

Время (UTC), дата Ветер
(напр.,м/с)
 
Видим.   Явления Облачность Т
(С)
Тd
(С)
f
(%)
Тe
(С)
Тes
(С)
Комфортность P
(гПа)
Po
(гПа)
Тmin
(С)
Tmax
(С)
R
(мм)
R24
(мм)
S
(см)
06 17.07 ЮВ 1 50 км 3/1 600 м
[Cu med, cong Ac trans Ci fib]
+19.3 +11.4 60 +21 +32 комфорт 1008.7 906.0
09 17.07 В 2 50 км 5/3 600 м
[Cu med, cong Ac trans]
+23.8 +11.5 46 +25 +36 комфорт 1005.9 904.9
12 17.07 В 2 50 км 4/3 600 м
[Cu med, cong Ac trans]
+25.1 +11.3 42 +26 +34 жарко 1005.1 904.6
15 17.07 В 3 50 км 4/3 600 м
[Cu med, cong Ac trans]
+23.3 +12.4 50 +26 +27 жарко 1005.6 904.5 +26.0
18 17.07 штиль 0 50 км 6/0
[Ac trans]
+17.7 +13.6 77 +18 +18 1007.9 904.8
21 17.07 Ю 2 50 км 8/0
[Ac trans]
+14.0 +14.0 100 +13 +13 1008.0 903.6
00 18.07 штиль 0 50 км 8/0
[Ac trans]
+12.7 +12.7 100 +12 +12 1007.8 903.0
03 18.07 штиль 0 50 км 8/3 600 м
[Sc Ac trans]
+13.9 +13.9 100 +13 +14 1007.7 903.3 +12.7
06 18.07 С 1 50 км 4/4 600 м
[Cu Sc]
+21.0 +13.6 63 +25 +32 комфорт 1005.2 903.4
09 18.07 З 3 50 км 10/10 600 м
[Cb calv]
+18.9 +13.0 69 +20 +20 1007.8 905.1
12 18.07 СЗ 2 50 км {ливн. осадки} 10/10 600 м
[Cb calv]
+19.8 +14.3 71 +22 +22 комфорт 1008.4 906.0
15 18.07 штиль 0 20 км слаб. ливневой дождь 10/10 600 м
[Cb calv]
+19.6 +15.1 75 +21 +21 комфорт 1007.9 905.5 +23.7 0.0
18 18.07 ЮЗ 1 50 км {ливн. осадки} 6/3 600 м
[Sc Ac trans]
+16.0 +15.6 97 +17 +17 1011.0 907.1
21 18.07 штиль 0 20 км 10/10 600 м
[Sc]
+15.7 +15.7 100 +15 +15 1011.6 907.5
00 19.07 штиль 0 20 км 10/10 600 м
[Sc]
+16.0 +16.0 100 +16 +16 1012.6 908.5
03 19.07 Ю 1 20 км 10/10 600 м
[Sc]
+15.7 +15.7 100 +16 +16 1013.7 909.4 +15.2 0.0
06 19.07 С 1 20 км 10/10 600 м
[Sc]
+20.0 +15.9 77 +24 +24 комфорт 1012.5 909.8
09 19.07 В 3 20 км 9/9 600 м
[Cb calv]
+22.3 +15.9 67 +26 +28 жарко 1011.8 909.9
12 19.07 С 1 10 км гроза, ливневой дождь 10/10 600 м
[Cb calv]
+17.3 +17.3 100 +18 +18 1014.7 910.9
15 19.07 З 1 20 км слаб. ливневой дождь {гроза} 10/10 600 м
[Cb calv]
+18.3 +17.1 93 +20 +20 1014.8 911.3 +22.4 5
18 19.07 штиль 0 20 км в посл. час ливневой дождь {гроза} 10/10 600 м
[Cb calv]
+17.1 +17.1 100 +17 +17 1016.9 912.8
21 19.07 штиль 0 20 км {ливн. осадки} 10/10 600 м
[Sc]
+16.6 +16.6 100 +16 +16 1017.2 912.9
00 20.07 штиль 0 20 км 10/10 600 м
[Sc]
+16.4 +16.4 100 +16 +16 1017.7 913.3
03 20.07 Ю 1 20 км 10/10 600 м
[Sc]
+16.0 +16.0 100 +17 +17 1018.6 913.9 +15.8 0.4
06 20.07 В 1 20 км 9/8 600 м
[Sc Ac trans]
+20.0 +16.0 78 +24 +25 комфорт 1017.4 914.2
09 20.07 В 4 20 км 9/6 600 м
[Cu med, cong Ac trans]
+23.5 +15.5 61 +27 +29 душно 1015.4 913.5
12 20.07 В 3 20 км 9/8 600 м
[Cb calv Ac trans]
+24.1 +14.7 56 +27 +28 жарко 1015.0 913.3
15 20.07 В 2 50 км 9/4 600 м
[Cb calv Ac trans]
+23.1 +15.0 60 +27 +28 душно 1015.3 913.2 +26.6
18 20.07 Ю 1 50 км 6/3 600 м
[Sc Ac trans]
+17.4 +16.5 94 +18 +18 1017.1 913.1
21 20.07 штиль 0 50 км 4/0
[Ac trans]
+14.8 +14.8 100 +14 +14 1017.8 912.7
00 21.07 штиль 0 50 км 8/0
[Ac trans]
+14.0 +14.0 100 +13 +13 1017.3 912.0
03 21.07 штиль 0 50 км 8/0
[Ac trans Ci fib]
+14.1 +14.1 100 +14 +14 1016.6 911.4 +13.3
06 21.07 З 1 20 км ясно +21.6 +15.3 67 +25 +37 комфорт 1012.7 910.4
09 21.07 С 2 20 км 8/5 600 м
[Cu med, cong Ac trans]
+25.8 +17.0 58 +30 +35 душно 1010.8 910.2
12 21.07 СВ 2 20 км 10/6 600 м
[Cb calv Ac trans Ci fib]
+26.5 +17.8 59 +31 +33 душно 1009.8 909.5
15 21.07 З 2 20 км 10/10 600 м
[Cb calv]
+22.5 +18.1 76 +28 +28 душно 1011.4 909.7 +27.0
18 21.07 З 2 20 км 10/10 600 м
[Sc]
+20.7 +18.3 86 +25 +25 комфорт 1012.6 910.2
21 21.07 С 4 20 км слаб. ливневой дождь 10/10 600 м
[Cb calv]
+15.5 +15.5 100 +14 +14 1016.4 911.8
00 22.07 З 1 10 км слаб. ливневой дождь 10/10 600 м
[Cb calv]
+14.6 +14.6 100 +15 +15 1017.5 912.4
03 22.07 штиль 0 10 км {ливн. осадки} 10/10 600 м
[Cb calv]
+14.8 +14.8 100 +14 +14 1016.9 911.9 +14.6 7
06 22.07 С 1 20 км {ливн. осадки} 10/10 600 м
[Cb calv]
+15.8 +15.8 100 +16 +16 1016.0 911.5
09 22.07 С 2 20 км 10/10 600 м
[Cb calv]
+17.3 +15.0 86 +18 +18 1015.4 911.4
12 22.07 В 2 20 км 10/10 600 м
[Cb calv]
+17.7 +15.2 85 +18 +18 1015.3 911.5
15 22.07 В 1 20 км 10/10 600 м
[Cb calv]
+16.4 +14.7 90 +17 +17 1016.3 911.9 +18.3
18 22.07 штиль 0 20 км 10/10 600 м
[Sc]
+15.8 +15.6 99 +16 +16 1016.3 911.8
21 22.07 В 1 20 км 10/10 600 м
[Sc]
+15.5 +15.5 100 +16 +16 1015.2 910.7
00 23.07 штиль 0 20 км 10/10 600 м
[Sc]
+15.3 +15.3 100 +15 +15 1014.2 909.7
03 23.07 штиль 0 10 км 10/10 600 м
[Sc]
+15.4 +15.4 100 +15 +15 1013.2 908.8 +15.0
06 23.07 СВ 1 20 км в посл. час ливневой дождь 10/10 600 м
[Cb calv]
+18.0 +16.5 91 +19 +19 1011.3 908.0
09 23.07 С 1 20 км {ливн. осадки} 10/10 600 м
[Cb calv]
+21.5 +15.4 68 +25 +25 комфорт 1009.4 907.4
12 23.07 С 1 20 км гроза без осадков {ливн. осадки} 10/10 600 м
[Cb calv]
+20.0 +15.6 76 +24 +24 комфорт 1009.8 907.3
15 23.07 штиль 0 20 км в посл. час ливневой дождь {гроза} 9/9 600 м
[Cb calv]
+17.9 +17.9 100 +18 +18 1010.7 907.6 +23.7 7
18 23.07 Ю 1 20 км {гроза, ливн. осадки} 8/8 600 м
[Cb calv]
+16.8 +16.8 100 +18 +18 1010.7 907.1
21 23.07 штиль 0 10 км 10/10 600 м
[Sc]
+15.1 +15.1 100 +15 +15 1010.7 906.5
03 24.07 С 1 50 км слаб. ливневой дождь {туман} 9/9 600 м
[Cb calv]
+14.7 +14.7 100 +15 +15 1010.4 906.0 +14.2 3

 

Местоположение метеостанции Зеленчукская (Карачаево-Черкессия, Россия): широта 43.87 долгота 41.57 высота над уровнем моря 929 м.

В архиве по умолчанию представлена погода в Зеленчукской за последнюю неделю. Архивные данные за месяц целиком и за предыдущие месяцы, начиная с января 2011 года, Вы можете получить, выбрав интересующий диапазон дат из раскрывающегося списка и нажав кнопку "Ввод!".


*Определитесь, кто Вы:
робот инопланетянин человек

Внимание! Время в таблицах - всемирное. Для получения местного времени необходимо прибавить поправку, которая равна 3 ч.

Смотрите также архив погоды в соседних городах и на ближайших метеорологических станциях:

Погода в Теберде (Карачаево-Черкессия, Россия) (48 км)
Погода в Черкесске (Карачаево-Черкессия, Россия) (56 км)
Погода в Домбае (Карачаево-Черкессия, Россия) (56 км)
Погода в Отрадной (Краснодарский край, Россия) (59 км)
Погода в Архызе (Карачаево-Черкессия, Россия) (63 км)
Погода в Псебае (Краснодарский край, Россия) (70 км)
Погода на Клухорском Перевале (Карачаево-Черкессия, Россия) (87 км)
Погода в Шаджатмазе (Карачаево-Черкессия, Россия) (90 км)
Погода в Невинномысске (Ставропольский край, Россия) (90 км)
Погода в Кисловодске (Ставропольский край, Россия) (92 км)

Пояснения к столбцам:

Ветер - указаны скорость ветра в м/с - средняя за 10 мин, порывы в срок и между сроками (в фигурных скобках) и направление, откуда дует ветер: С - северный, СВ - северо-восточный, В - восточный, ЮВ - юго-восточный, Ю - южный, ЮЗ - юго-западный, З - западный, СЗ - северо-западный.
Видимость - горизонтальная дальность видимости в метрах или километрах. При видимости от 1 до 10 км при отсутствии осадков обычно наблюдается дымка, при ухудшении видимости до 1 км и менее - туман. В сухую погоду видимость может ухудшаться дымом, пылью или мглою.
Явления - указаны атмосферные явления, наблюдавшиеся в срок или в последний час перед сроком; фигурными скобками обозначены явления, наблюдавшиеся между сроками (за 1-3 часа до срока); квадратными скобками обозначены град или гололедные отложения с указанием их диаметра в мм.
Облачность - указаны через наклонную черту общая и нижняя облачность в баллах и высота нижней границы облаков в метрах; квадратными скобками обозначены формы облаков: Ci - перистые, Cs - перисто-слоистые, Cc - перисто-кучевые, Ac - высококучевые, As - высокослоистые, Sc - слоисто-кучевые, Ns - слоисто-дождевые, Cu - кучевые, Cb - кучево-дождевые. Подробнее классификацию облаков см. в Атласе облаков (PDF).
T - Температура воздуха - температура, измеренная на высоте 2 м над землей.
Td - Температура точки росы - температура, при понижении до которой содержащийся в воздухе водяной пар достигнет насыщения.
f - Относительная влажность воздуха - влажноcть воздуха, измеренная на высоте 2 м над землей.
Te - Эффективная температура - температура, которую ощущает одетый по сезону человек в тени. Характеристика душности погоды. При расчете учитывается влияние влажности воздуха и скорости ветра на теплоощущения человека.
Tes - Эффективная температура на солнце - температура, которую ощущает человек, с поправкой на солнечный нагрев. Характеристика знойности погоды. Зависит от высоты солнца над горизонтом, облачности и скорости ветра. Ночью, в пасмурную погоду, а также при ветре 12 м/с и более поправка равна нулю.
P - Атмосферное давление - приведенное к уровню моря атмосферное давление.
Po - Атмосферное давление - измеренное на уровне метеостанции атмосферное давление.
Tmin - Минимальная температура - минимум температуры воздуха на высоте 2 м над землей.
Tmax - Максимальная температура - максимум температуры воздуха на высоте 2 м над землей.
R - Количество осадков - Количество выпавших осадков за период времени, мм. При наведении курсора мыши на число - период времени, за который выпало указанное количество осадков.
R24 - Количество осадков - Количество выпавших осадков за 24 часа, мм.
S - Снежный покров - Высота снежного покрова, см. При наведении курсора мыши на число - состояние снежного покрова и степень покрытия местности в баллах.